Location: Étang Rond
(42.7927°N, 1.0661°E)
Time: 22:41:44
(UTC+00:00)

Cosmos 2123 Rocket - Pass Details

Date: 08 November 2025
Orbit: 960 x 991 km, 82.9° (Epoch: 13 December)

Event Time Altitude Azimuth Distance (km) Brightness Sun altitude
Rises 05:33:17 0° 210° (SSW) 3,661 6.8 -12.3°
Reaches altitude 10° 05:35:59 10° 219° (SW) 2,713 6.1 -11.9°
Maximum altitude 05:41:41 37° 285° (WNW) 1,455 4.4 -10.8°
Drops below altitude 10° 05:47:24 10° 353° (N) 2,712 6.1 -9.8°
Sets 05:50:08 0° 1° (N) 3,660 6.9 -9.3°
